| time (UTC) | temp C | wind direction | speed KPH | gust KPH | rain 1hr cm | rain 24hr cm | rain mn cm | humidity % | barometer mb |
| 20260510095205 | 14 | 283 | 1.6 | 1.6 | 0.00 | 0.00 | 0.00 | 91 | 4162.4 |
| 20260510094703 | 14 | 278 | 1.6 | 1.6 | 0.00 | 0.00 | 0.00 | 91 | 4162.0 |
| 20260510094200 | 14 | 272 | 0.0 | 1.6 | 0.00 | 0.00 | 0.00 | 91 | 4162.1 |
| 20260510093655 | 14 | 271 | 0.0 | 0.0 | 0.00 | 0.00 | 0.00 | 90 | 4162.1 |
| 20260510093153 | 14 | 271 | 0.0 | 0.0 | 0.00 | 0.00 | 0.00 | 90 | 4162.0 |
| 20260510092649 | 14 | 270 | 0.0 | 0.0 | 0.00 | 0.00 | 0.00 | 89 | 4162.2 |
| 20260510092145 | 14 | 269 | 0.0 | 0.0 | 0.00 | 0.00 | 0.00 | 90 | 4162.2 |
| 20260510091641 | 14 | 271 | 0.0 | 0.0 | 0.00 | 0.00 | 0.00 | 90 | 4162.2 |
| 20260510091137 | 14 | 270 | 0.0 | 1.6 | 0.00 | 0.00 | 0.00 | 90 | 4162.0 |
| 20260510090634 | 14 | 267 | 0.0 | 0.0 | 0.00 | 0.00 | 0.00 | 90 | 4161.8 |
| 20260510090130 | 14 | 2 | 1.6 | 1.6 | 0.00 | 0.00 | 0.00 | 91 | 4161.9 |
| 20260510085626 | 14 | 0 | 1.6 | 1.6 | 0.00 | 0.00 | 0.00 | 92 | 4162.4 |
| 20260510085121 | 13 | 349 | 0.0 | 1.6 | 0.00 | 0.00 | 0.00 | 92 | 4162.5 |
| 20260510084618 | 13 | 356 | 0.0 | 1.6 | 0.00 | 0.00 | 0.00 | 92 | 4162.5 |
| 20260510084115 | 13 | 355 | 1.6 | 1.6 | 0.00 | 0.00 | 0.00 | 93 | 4162.3 |
| 20260510083611 | 13 | 341 | 1.6 | 1.6 | 0.00 | 0.00 | 0.00 | 94 | 4162.2 |
| 20260510083107 | 13 | 352 | 1.6 | 1.6 | 0.00 | 0.00 | 0.00 | 94 | 4162.1 |
| 20260510082604 | 13 | 341 | 1.6 | 1.6 | 0.00 | 0.00 | 0.00 | 95 | 4162.0 |
| 20260510082059 | 13 | 0 | 1.6 | 1.6 | 0.00 | 0.00 | 0.00 | 95 | 4161.9 |
| 20260510081555 | 13 | 350 | 3.2 | 3.2 | 0.00 | 0.00 | 0.00 | 95 | 4161.9 |
| 20260510081051 | 13 | 328 | 1.6 | 1.6 | 0.00 | 0.00 | 0.00 | 95 | 4161.8 |
| 20260510080550 | 13 | 307 | 0.0 | 0.0 | 0.00 | 0.00 | 0.00 | 95 | 4161.4 |
| 20260510080047 | 13 | 308 | 0.0 | 0.0 | 0.00 | 0.00 | 0.00 | 95 | 4161.4 |
| 20260510075544 | 13 | 296 | 0.0 | 0.0 | 0.00 | 0.00 | 0.00 | 95 | 4161.7 |
| 20260510075041 | 13 | 296 | 0.0 | 0.0 | 0.00 | 0.00 | 0.00 | 95 | 4161.6 |
| 20260510074539 | 13 | 295 | 0.0 | 0.0 | 0.00 | 0.00 | 0.00 | 95 | 4161.6 |
| 20260510074034 | 13 | 296 | 0.0 | 0.0 | 0.00 | 0.00 | 0.00 | 95 | 4161.6 |
| 20260510073530 | 13 | 295 | 0.0 | 0.0 | 0.00 | 0.00 | 0.00 | 94 | 4161.6 |
| 20260510073027 | 13 | 295 | 0.0 | 0.0 | 0.00 | 0.00 | 0.00 | 94 | 4161.5 |
| 20260510072524 | 13 | 296 | 0.0 | 0.0 | 0.00 | 0.00 | 0.00 | 94 | 4161.4 |
| 20260510072020 | 13 | 295 | 0.0 | 0.0 | 0.00 | 0.00 | 0.00 | 94 | 4161.5 |
| 20260510071516 | 13 | 295 | 0.0 | 0.0 | 0.00 | 0.00 | 0.00 | 94 | 4161.4 |
| 20260510071015 | 13 | 295 | 0.0 | 0.0 | 0.00 | 0.00 | 0.00 | 93 | 4161.4 |
| 20260510070511 | 13 | 295 | 0.0 | 0.0 | 0.00 | 0.00 | 0.00 | 93 | 4161.4 |
| 20260510070008 | 13 | 295 | 0.0 | 0.0 | 0.00 | 0.00 | 0.00 | 93 | 4161.4 |
| 20260510065504 | 13 | 295 | 0.0 | 0.0 | 0.00 | 0.00 | 0.00 | 93 | 4161.5 |
| 20260510065000 | 13 | 297 | 0.0 | 0.0 | 0.00 | 0.00 | 0.00 | 93 | 4161.6 |
| 20260510064457 | 13 | 301 | 0.0 | 0.0 | 0.00 | 0.00 | 0.00 | 93 | 4161.5 |
| 20260510063953 | 13 | 302 | 0.0 | 0.0 | 0.00 | 0.00 | 0.00 | 92 | 4161.6 |
| 20260510063450 | 14 | 302 | 0.0 | 0.0 | 0.00 | 0.00 | 0.00 | 92 | 4161.8 |
| 20260510062948 | 13 | 302 | 0.0 | 0.0 | 0.00 | 0.00 | 0.00 | 92 | 4161.8 |
| 20260510062443 | 13 | 294 | 1.6 | 1.6 | 0.00 | 0.00 | 0.00 | 92 | 4161.8 |
| 20260510061938 | 13 | 293 | 0.0 | 1.6 | 0.00 | 0.00 | 0.00 | 92 | 4161.8 |
| 20260510061435 | 14 | 294 | 0.0 | 0.0 | 0.00 | 0.00 | 0.00 | 92 | 4161.7 |
| 20260510060931 | 14 | 293 | 0.0 | 0.0 | 0.00 | 0.00 | 0.00 | 92 | 4161.8 |
| 20260510060429 | 14 | 293 | 0.0 | 0.0 | 0.00 | 0.00 | 0.00 | 91 | 4161.8 |
| 20260510055925 | 14 | 293 | 0.0 | 0.0 | 0.00 | 0.00 | 0.00 | 91 | 4161.7 |
| 20260510055420 | 15 | 296 | 1.6 | 1.6 | 0.00 | 0.00 | 0.00 | 91 | 4161.8 |
| 20260510054919 | 15 | 329 | 0.0 | 0.0 | 0.00 | 0.00 | 0.00 | 91 | 4161.9 |
| 20260510054414 | 15 | 347 | 0.0 | 0.0 | 0.00 | 0.00 | 0.00 | 91 | 4161.8 |
| 20260510053909 | 15 | 262 | 3.2 | 3.2 | 0.00 | 0.00 | 0.00 | 92 | 4161.8 |
| 20260510053405 | 15 | 315 | 0.0 | 0.0 | 0.00 | 0.00 | 0.00 | 91 | 4161.6 |
| 20260510052901 | 15 | 315 | 0.0 | 0.0 | 0.00 | 0.00 | 0.00 | 91 | 4161.6 |
| 20260510052357 | 15 | 315 | 0.0 | 0.0 | 0.00 | 0.00 | 0.00 | 91 | 4161.4 |
| 20260510051854 | 15 | 315 | 0.0 | 0.0 | 0.00 | 0.00 | 0.00 | 90 | 4161.6 |
| 20260510051350 | 15 | 315 | 0.0 | 0.0 | 0.00 | 0.00 | 0.00 | 90 | 4161.7 |
| 20260510050847 | 15 | 316 | 0.0 | 0.0 | 0.00 | 0.00 | 0.00 | 89 | 4161.5 |
| 20260510050344 | 15 | 315 | 0.0 | 0.0 | 0.00 | 0.00 | 0.00 | 90 | 4161.5 |
| 20260510045841 | 15 | 315 | 0.0 | 0.0 | 0.00 | 0.00 | 0.00 | 89 | 4161.4 |
| 20260510045337 | 15 | 316 | 0.0 | 0.0 | 0.00 | 0.00 | 0.00 | 89 | 4161.6 |
| 20260510044835 | 15 | 316 | 0.0 | 0.0 | 0.00 | 0.00 | 0.00 | 89 | 4161.4 |
| 20260510044331 | 15 | 316 | 0.0 | 0.0 | 0.00 | 0.00 | 0.00 | 88 | 4161.2 |
| 20260510043828 | 15 | 315 | 0.0 | 1.6 | 0.00 | 0.00 | 0.00 | 88 | 4161.4 |
| 20260510043324 | 15 | 316 | 0.0 | 0.0 | 0.00 | 0.00 | 0.00 | 87 | 4161.5 |
| 20260510042822 | 15 | 316 | 0.0 | 0.0 | 0.00 | 0.00 | 0.00 | 86 | 4161.4 |
| 20260510042318 | 15 | 315 | 0.0 | 0.0 | 0.00 | 0.00 | 0.00 | 86 | 4161.3 |
| 20260510041814 | 16 | 316 | 0.0 | 1.6 | 0.00 | 0.00 | 0.00 | 86 | 4161.2 |
| 20260510041311 | 16 | 311 | 1.6 | 1.6 | 0.00 | 0.00 | 0.00 | 85 | 4161.0 |
| 20260510040809 | 16 | 285 | 0.0 | 0.0 | 0.00 | 0.00 | 0.00 | 83 | 4161.3 |
| 20260510040305 | 16 | 307 | 0.0 | 0.0 | 0.00 | 0.00 | 0.00 | 83 | 4161.0 |
| 20260510035801 | 16 | 307 | 0.0 | 1.6 | 0.00 | 0.00 | 0.00 | 82 | 4160.8 |
| 20260510035256 | 16 | 305 | 1.6 | 1.6 | 0.00 | 0.00 | 0.00 | 82 | 4161.2 |
| 20260510034752 | 16 | 322 | 0.0 | 0.0 | 0.00 | 0.00 | 0.00 | 82 | 4161.0 |
| 20260510034250 | 16 | 304 | 1.6 | 1.6 | 0.00 | 0.00 | 0.00 | 83 | 4160.9 |
| 20260510033746 | 16 | 290 | 0.0 | 0.0 | 0.00 | 0.00 | 0.00 | 84 | 4160.8 |
| 20260510033244 | 16 | 290 | 0.0 | 0.0 | 0.00 | 0.00 | 0.00 | 83 | 4160.8 |
| 20260510032740 | 16 | 290 | 0.0 | 0.0 | 0.00 | 0.00 | 0.00 | 83 | 4160.5 |
| 20260510032236 | 17 | 290 | 0.0 | 0.0 | 0.00 | 0.00 | 0.00 | 83 | 4160.7 |
| 20260510031732 | 17 | 290 | 0.0 | 0.0 | 0.00 | 0.00 | 0.00 | 82 | 4160.8 |
| 20260510031227 | 17 | 289 | 0.0 | 0.0 | 0.00 | 0.00 | 0.00 | 82 | 4160.5 |
| 20260510030727 | 17 | 287 | 0.0 | 0.0 | 0.00 | 0.00 | 0.00 | 80 | 4160.5 |
| 20260510030219 | 17 | 295 | 0.0 | 0.0 | 0.00 | 0.00 | 0.00 | 79 | 4160.8 |
| 20260510025717 | 17 | 306 | 0.0 | 0.0 | 0.00 | 0.00 | 0.00 | 78 | 4160.4 |
| 20260510025213 | 17 | 305 | 0.0 | 0.0 | 0.00 | 0.00 | 0.00 | 78 | 4160.3 |
| 20260510024710 | 17 | 305 | 0.0 | 0.0 | 0.00 | 0.00 | 0.00 | 77 | 4160.1 |
| 20260510024207 | 17 | 305 | 0.0 | 0.0 | 0.00 | 0.00 | 0.00 | 76 | 4160.1 |
| 20260510023702 | 18 | 306 | 0.0 | 0.0 | 0.00 | 0.00 | 0.00 | 75 | 4159.9 |
| 20260510023200 | 18 | 306 | 1.6 | 1.6 | 0.00 | 0.00 | 0.00 | 74 | 4159.6 |
| 20260510022655 | 18 | 332 | 1.6 | 1.6 | 0.00 | 0.00 | 0.00 | 73 | 4159.6 |
| 20260510022150 | 18 | 334 | 0.0 | 0.0 | 0.00 | 0.00 | 0.00 | 72 | 4159.5 |
| 20260510021646 | 19 | 333 | 1.6 | 1.6 | 0.00 | 0.00 | 0.00 | 71 | 4159.6 |
| 20260510021143 | 20 | 129 | 0.0 | 0.0 | 0.00 | 0.00 | 0.00 | 70 | 4159.6 |
| 20260510020638 | 20 | 130 | 0.0 | 0.0 | 0.00 | 0.00 | 0.00 | 69 | 4159.0 |
| 20260510020134 | 21 | 143 | 0.0 | 0.0 | 0.00 | 0.00 | 0.00 | 68 | 4159.0 |
| 20260510015630 | 21 | 145 | 0.0 | 0.0 | 0.00 | 0.00 | 0.00 | 65 | 4159.0 |
| 20260510015127 | 21 | 162 | 0.0 | 0.0 | 0.00 | 0.00 | 0.00 | 61 | 4158.9 |
| 20260510014622 | 22 | 161 | 0.0 | 0.0 | 0.00 | 0.00 | 0.00 | 61 | 4158.8 |
| 20260510014119 | 22 | 161 | 1.6 | 1.6 | 0.00 | 0.00 | 0.00 | 60 | 4158.6 |
| 20260510013619 | 22 | 161 | 1.6 | 1.6 | 0.00 | 0.00 | 0.00 | 58 | 4158.8 |
| 20260510013115 | 22 | 176 | 1.6 | 3.2 | 0.00 | 0.00 | 0.00 | 57 | 4158.6 |
| 20260510012615 | 23 | 175 | 0.0 | 1.6 | 0.00 | 0.00 | 0.00 | 55 | 4158.9 |
| 20260510012111 | 23 | 175 | 0.0 | 1.6 | 0.00 | 0.00 | 0.00 | 53 | 4158.6 |
| 20260510011611 | 23 | 175 | 0.0 | 1.6 | 0.00 | 0.00 | 0.00 | 52 | 4158.4 |
| 20260510011107 | 24 | 175 | 0.0 | 0.0 | 0.00 | 0.00 | 0.00 | 51 | 4158.3 |
| 20260510010603 | 25 | 175 | 1.6 | 1.6 | 0.00 | 0.00 | 0.00 | 48 | 4158.4 |
| 20260510010101 | 25 | 176 | 0.0 | 0.0 | 0.00 | 0.00 | 0.00 | 47 | 4158.3 |
| 20260510005556 | 25 | 177 | 0.0 | 0.0 | 0.00 | 0.00 | 0.00 | 45 | 4158.1 |
| 20260510005054 | 25 | 178 | 0.0 | 0.0 | 0.00 | 0.00 | 0.00 | 44 | 4158.1 |
| 20260510004552 | 26 | 190 | 1.6 | 1.6 | 0.00 | 0.00 | 0.00 | 44 | 4158.0 |
| 20260510004050 | 26 | 192 | 0.0 | 1.6 | 0.00 | 0.00 | 0.00 | 42 | 4158.0 |
| 20260510003546 | 26 | 201 | 1.6 | 3.2 | 0.00 | 0.00 | 0.00 | 41 | 4158.1 |
| 20260510003041 | 27 | 188 | 1.6 | 1.6 | 0.00 | 0.00 | 0.00 | 40 | 4158.1 |
| 20260510002537 | 27 | 195 | 1.6 | 1.6 | 0.00 | 0.00 | 0.00 | 39 | 4158.0 |
| 20260510002034 | 28 | 189 | 0.0 | 0.0 | 0.00 | 0.00 | 0.00 | 37 | 4157.9 |
| 20260510001531 | 28 | 185 | 0.0 | 0.0 | 0.00 | 0.00 | 0.00 | 36 | 4157.8 |
| 20260510001030 | 29 | 184 | 0.0 | 0.0 | 0.00 | 0.00 | 0.00 | 35 | 4157.9 |
| 20260510000524 | 28 | 173 | 0.0 | 0.0 | 0.00 | 0.00 | 0.00 | 35 | 4157.8 |
| 20260510000022 | 28 | 172 | 0.0 | 0.0 | 0.00 | 0.00 | 0.00 | 36 | 4157.9 |
| 20260509235518 | 28 | 115 | 1.6 | 1.6 | 0.00 | 0.00 | 0.00 | 35 | 4158.0 |
| 20260509235015 | 28 | 178 | 1.6 | 1.6 | 0.00 | 0.00 | 0.00 | 34 | 4157.9 |
| 20260509234511 | 28 | 188 | 0.0 | 1.6 | 0.00 | 0.00 | 0.00 | 36 | 4157.8 |
| 20260509234010 | 28 | 190 | 1.6 | 3.2 | 0.00 | 0.00 | 0.00 | 34 | 4158.0 |
| 20260509233506 | 28 | 200 | 0.0 | 0.0 | 0.00 | 0.00 | 0.00 | 35 | 4157.8 |
| 20260509233003 | 28 | 170 | 1.6 | 1.6 | 0.00 | 0.00 | 0.00 | 36 | 4158.0 |
| 20260509232501 | 28 | 205 | 1.6 | 1.6 | 0.00 | 0.00 | 0.00 | 34 | 4158.1 |
| 20260509231956 | 29 | 215 | 1.6 | 1.6 | 0.00 | 0.00 | 0.00 | 34 | 4158.0 |
| 20260509231453 | 28 | 163 | 0.0 | 1.6 | 0.00 | 0.00 | 0.00 | 35 | 4158.0 |
| 20260509230951 | 28 | 168 | 1.6 | 1.6 | 0.00 | 0.00 | 0.00 | 36 | 4158.2 |
| 20260509230448 | 28 | 176 | 1.6 | 1.6 | 0.00 | 0.00 | 0.00 | 35 | 4157.9 |
| 20260509225944 | 28 | 199 | 1.6 | 1.6 | 0.00 | 0.00 | 0.00 | 34 | 4157.8 |
| 20260509225440 | 29 | 195 | 1.6 | 1.6 | 0.00 | 0.00 | 0.00 | 34 | 4157.9 |
| 20260509224936 | 28 | 151 | 0.0 | 0.0 | 0.00 | 0.00 | 0.00 | 35 | 4157.8 |
| 20260509224431 | 30 | 137 | 1.6 | 1.6 | 0.00 | 0.00 | 0.00 | 34 | 4157.9 |
| 20260509223929 | 29 | 205 | 0.0 | 0.0 | 0.00 | 0.00 | 0.00 | 35 | 4157.7 |
| 20260509223425 | 28 | 308 | 1.6 | 3.2 | 0.00 | 0.00 | 0.00 | 34 | 4157.8 |
| 20260509222923 | 28 | 309 | 1.6 | 3.2 | 0.00 | 0.00 | 0.00 | 37 | 4157.8 |
| 20260509222418 | 28 | 347 | 6.4 | 8.0 | 0.00 | 0.00 | 0.00 | 38 | 4158.0 |
| 20260509221914 | 28 | 154 | 1.6 | 3.2 | 0.00 | 0.00 | 0.00 | 37 | 4157.8 |
| 20260509221411 | 28 | 50 | 1.6 | 1.6 | 0.00 | 0.00 | 0.00 | 36 | 4157.9 |
| 20260509220907 | 28 | 214 | 0.0 | 1.6 | 0.00 | 0.00 | 0.00 | 36 | 4157.9 |
| 20260509220403 | 28 | 216 | 3.2 | 3.2 | 0.00 | 0.00 | 0.00 | 38 | 4157.9 |
| 20260509215858 | 27 | 179 | 1.6 | 1.6 | 0.00 | 0.00 | 0.00 | 40 | 4157.9 |
| 20260509215355 | 27 | 88 | 1.6 | 1.6 | 0.00 | 0.00 | 0.00 | 38 | 4158.0 |
| 20260509214852 | 27 | 77 | 1.6 | 3.2 | 0.00 | 0.00 | 0.00 | 37 | 4158.1 |
| 20260509214349 | 28 | 183 | 1.6 | 1.6 | 0.00 | 0.00 | 0.00 | 38 | 4158.1 |
| 20260509213846 | 28 | 155 | 0.0 | 1.6 | 0.00 | 0.00 | 0.00 | 36 | 4158.0 |
| 20260509213341 | 28 | 163 | 0.0 | 1.6 | 0.00 | 0.00 | 0.00 | 36 | 4157.9 |
| 20260509212839 | 27 | 145 | 1.6 | 1.6 | 0.00 | 0.00 | 0.00 | 36 | 4158.2 |
| 20260509212337 | 27 | 178 | 1.6 | 1.6 | 0.00 | 0.00 | 0.00 | 38 | 4158.1 |
| 20260509211832 | 28 | 159 | 3.2 | 3.2 | 0.00 | 0.00 | 0.00 | 37 | 4158.0 |
| 20260509211328 | 27 | 192 | 1.6 | 3.2 | 0.00 | 0.00 | 0.00 | 38 | 4158.2 |
| 20260509210825 | 28 | 154 | 0.0 | 0.0 | 0.00 | 0.00 | 0.00 | 38 | 4158.2 |
| 20260509210323 | 28 | 127 | 1.6 | 1.6 | 0.00 | 0.00 | 0.00 | 35 | 4158.1 |
| 20260509205822 | 28 | 192 | 4.8 | 4.8 | 0.00 | 0.00 | 0.00 | 37 | 4158.1 |
| 20260509205317 | 28 | 112 | 0.0 | 1.6 | 0.00 | 0.00 | 0.00 | 35 | 4158.2 |
| 20260509204814 | 28 | 142 | 1.6 | 1.6 | 0.00 | 0.00 | 0.00 | 36 | 4158.2 |
| 20260509204310 | 28 | 176 | 1.6 | 1.6 | 0.00 | 0.00 | 0.00 | 35 | 4158.3 |
| 20260509203806 | 29 | 129 | 1.6 | 3.2 | 0.00 | 0.00 | 0.00 | 33 | 4158.3 |
| 20260509203304 | 29 | 130 | 1.6 | 1.6 | 0.00 | 0.00 | 0.00 | 35 | 4158.2 |
| 20260509202800 | 28 | 186 | 0.0 | 0.0 | 0.00 | 0.00 | 0.00 | 37 | 4158.3 |
| 20260509202256 | 28 | 205 | 1.6 | 1.6 | 0.00 | 0.00 | 0.00 | 37 | 4158.4 |
| 20260509201755 | 30 | 190 | 1.6 | 1.6 | 0.00 | 0.00 | 0.00 | 34 | 4158.6 |
| 20260509201253 | 31 | 113 | 1.6 | 3.2 | 0.00 | 0.00 | 0.00 | 31 | 4158.6 |
| 20260509200749 | 30 | 184 | 1.6 | 1.6 | 0.00 | 0.00 | 0.00 | 32 | 4158.4 |
| 20260509200244 | 30 | 90 | 1.6 | 1.6 | 0.00 | 0.00 | 0.00 | 32 | 4158.7 |
| 20260509195740 | 30 | 209 | 3.2 | 4.8 | 0.00 | 0.00 | 0.00 | 35 | 4159.0 |
| 20260509195236 | 30 | 152 | 1.6 | 1.6 | 0.00 | 0.00 | 0.00 | 33 | 4158.8 |
| 20260509194731 | 31 | 173 | 3.2 | 3.2 | 0.00 | 0.00 | 0.00 | 34 | 4158.8 |
| 20260509194227 | 30 | 152 | 0.0 | 0.0 | 0.00 | 0.00 | 0.00 | 33 | 4159.0 |
| 20260509193724 | 28 | 153 | 1.6 | 3.2 | 0.00 | 0.00 | 0.00 | 36 | 4158.8 |
| 20260509193224 | 29 | 197 | 3.2 | 3.2 | 0.00 | 0.00 | 0.00 | 35 | 4159.0 |
| 20260509192720 | 29 | 126 | 1.6 | 1.6 | 0.00 | 0.00 | 0.00 | 33 | 4159.1 |
| 20260509192215 | 28 | 170 | 1.6 | 3.2 | 0.00 | 0.00 | 0.00 | 35 | 4159.0 |
| 20260509191711 | 28 | 139 | 1.6 | 3.2 | 0.00 | 0.00 | 0.00 | 35 | 4159.1 |
| 20260509191207 | 28 | 315 | 1.6 | 1.6 | 0.00 | 0.00 | 0.00 | 35 | 4159.3 |
| 20260509190703 | 28 | 195 | 4.8 | 4.8 | 0.00 | 0.00 | 0.00 | 34 | 4159.3 |
| 20260509190201 | 28 | 160 | 1.6 | 3.2 | 0.00 | 0.00 | 0.00 | 33 | 4159.1 |
| 20260509185659 | 30 | 199 | 3.2 | 3.2 | 0.00 | 0.00 | 0.00 | 33 | 4159.0 |
| 20260509185154 | 28 | 241 | 0.0 | 1.6 | 0.00 | 0.00 | 0.00 | 34 | 4159.1 |
| 20260509184652 | 28 | 223 | 4.8 | 4.8 | 0.00 | 0.00 | 0.00 | 36 | 4159.2 |
| 20260509184149 | 28 | 204 | 1.6 | 3.2 | 0.00 | 0.00 | 0.00 | 34 | 4159.0 |
| 20260509183645 | 28 | 188 | 1.6 | 1.6 | 0.00 | 0.00 | 0.00 | 33 | 4159.3 |
| 20260509183140 | 28 | 200 | 4.8 | 8.0 | 0.00 | 0.00 | 0.00 | 32 | 4159.2 |
| 20260509182636 | 28 | 182 | 3.2 | 3.2 | 0.00 | 0.00 | 0.00 | 34 | 4159.2 |
| 20260509182134 | 29 | 191 | 1.6 | 1.6 | 0.00 | 0.00 | 0.00 | 35 | 4159.1 |
| 20260509181632 | 29 | 229 | 4.8 | 4.8 | 0.00 | 0.00 | 0.00 | 35 | 4159.2 |
| 20260509181129 | 30 | 251 | 1.6 | 3.2 | 0.00 | 0.00 | 0.00 | 33 | 4159.0 |
| 20260509180625 | 28 | 164 | 1.6 | 3.2 | 0.00 | 0.00 | 0.00 | 33 | 4159.3 |
| 20260509180122 | 27 | 182 | 4.8 | 4.8 | 0.00 | 0.00 | 0.00 | 34 | 4159.3 |
| 20260509175617 | 27 | 166 | 3.2 | 3.2 | 0.00 | 0.00 | 0.00 | 38 | 4159.4 |
| 20260509175115 | 27 | 247 | 1.6 | 3.2 | 0.00 | 0.00 | 0.00 | 38 | 4159.3 |
| 20260509174611 | 27 | 153 | 3.2 | 3.2 | 0.00 | 0.00 | 0.00 | 36 | 4159.3 |
| 20260509174106 | 28 | 311 | 1.6 | 1.6 | 0.00 | 0.00 | 0.00 | 38 | 4159.5 |
| 20260509173601 | 28 | 238 | 1.6 | 1.6 | 0.00 | 0.00 | 0.00 | 38 | 4159.4 |
| 20260509173058 | 27 | 190 | 0.0 | 1.6 | 0.00 | 0.00 | 0.00 | 40 | 4159.6 |
| 20260509172555 | 27 | 248 | 1.6 | 1.6 | 0.00 | 0.00 | 0.00 | 42 | 4159.8 |
| 20260509172051 | 27 | 212 | 0.0 | 1.6 | 0.00 | 0.00 | 0.00 | 43 | 4159.8 |
| 20260509171546 | 27 | 202 | 4.8 | 4.8 | 0.00 | 0.00 | 0.00 | 45 | 4159.9 |
| 20260509171043 | 27 | 204 | 3.2 | 3.2 | 0.00 | 0.00 | 0.00 | 48 | 4159.7 |
| 20260509170539 | 27 | 172 | 1.6 | 3.2 | 0.00 | 0.00 | 0.00 | 49 | 4159.6 |
| 20260509170035 | 27 | 163 | 1.6 | 3.2 | 0.00 | 0.00 | 0.00 | 52 | 4159.8 |
| 20260509165534 | 27 | 229 | 1.6 | 1.6 | 0.00 | 0.00 | 0.00 | 51 | 4159.9 |
| 20260509165029 | 26 | 118 | 1.6 | 1.6 | 0.00 | 0.00 | 0.00 | 53 | 4159.9 |
| 20260509164526 | 25 | 48 | 1.6 | 3.2 | 0.00 | 0.00 | 0.00 | 55 | 4159.8 |
| 20260509164021 | 26 | 189 | 3.2 | 3.2 | 0.00 | 0.00 | 0.00 | 56 | 4160.0 |
| 20260509163519 | 25 | 238 | 1.6 | 1.6 | 0.00 | 0.00 | 0.00 | 57 | 4159.9 |
| 20260509163014 | 24 | 221 | 1.6 | 1.6 | 0.00 | 0.00 | 0.00 | 60 | 4159.9 |
| 20260509162512 | 25 | 186 | 4.8 | 4.8 | 0.00 | 0.00 | 0.00 | 60 | 4160.0 |
| 20260509162008 | 26 | 156 | 1.6 | 1.6 | 0.00 | 0.00 | 0.00 | 58 | 4160.0 |
| 20260509161505 | 24 | 4 | 1.6 | 1.6 | 0.00 | 0.00 | 0.00 | 60 | 4159.9 |
| 20260509160959 | 23 | 242 | 1.6 | 1.6 | 0.00 | 0.00 | 0.00 | 63 | 4160.0 |
| 20260509160455 | 23 | 194 | 4.8 | 4.8 | 0.00 | 0.00 | 0.00 | 64 | 4159.8 |
| 20260509155956 | 24 | 193 | 4.8 | 4.8 | 0.00 | 0.00 | 0.00 | 62 | 4160.1 |
| 20260509155453 | 23 | 130 | 1.6 | 1.6 | 0.00 | 0.00 | 0.00 | 64 | 4159.8 |
| 20260509154949 | 23 | 217 | 1.6 | 3.2 | 0.00 | 0.00 | 0.00 | 65 | 4159.9 |
| 20260509154445 | 23 | 177 | 1.6 | 3.2 | 0.00 | 0.00 | 0.00 | 64 | 4159.9 |
| 20260509153943 | 23 | 188 | 1.6 | 3.2 | 0.00 | 0.00 | 0.00 | 66 | 4159.9 |
| 20260509153440 | 23 | 13 | 0.0 | 0.0 | 0.00 | 0.00 | 0.00 | 66 | 4159.8 |
| 20260509152937 | 23 | 101 | 1.6 | 1.6 | 0.00 | 0.00 | 0.00 | 65 | 4159.8 |
| 20260509152432 | 23 | 175 | 0.0 | 0.0 | 0.00 | 0.00 | 0.00 | 65 | 4159.8 |
| 20260509151930 | 22 | 137 | 1.6 | 1.6 | 0.00 | 0.00 | 0.00 | 65 | 4159.7 |
| 20260509151426 | 22 | 323 | 4.8 | 4.8 | 0.00 | 0.00 | 0.00 | 67 | 4160.1 |
| 20260509150924 | 23 | 144 | 1.6 | 1.6 | 0.00 | 0.00 | 0.00 | 66 | 4159.7 |
| 20260509150421 | 21 | 146 | 0.0 | 1.6 | 0.00 | 0.00 | 0.00 | 69 | 4159.7 |
| 20260509145920 | 22 | 186 | 1.6 | 1.6 | 0.00 | 0.00 | 0.00 | 70 | 4159.8 |
| 20260509145420 | 21 | 98 | 0.0 | 1.6 | 0.00 | 0.00 | 0.00 | 71 | 4159.7 |
| 20260509144915 | 21 | 201 | 0.0 | 1.6 | 0.00 | 0.00 | 0.00 | 72 | 4159.9 |
| 20260509144412 | 21 | 191 | 1.6 | 3.2 | 0.00 | 0.00 | 0.00 | 72 | 4159.9 |
| 20260509143909 | 20 | 178 | 1.6 | 1.6 | 0.00 | 0.00 | 0.00 | 76 | 4160.1 |
| 20260509143407 | 20 | 213 | 3.2 | 3.2 | 0.00 | 0.00 | 0.00 | 76 | 4160.0 |
| 20260509142903 | 20 | 146 | 3.2 | 3.2 | 0.00 | 0.00 | 0.00 | 75 | 4159.9 |
| 20260509142359 | 20 | 155 | 0.0 | 1.6 | 0.00 | 0.00 | 0.00 | 75 | 4159.9 |
| 20260509141855 | 19 | 171 | 0.0 | 0.0 | 0.00 | 0.00 | 0.00 | 77 | 4159.8 |
| 20260509141353 | 20 | 302 | 3.2 | 3.2 | 0.00 | 0.00 | 0.00 | 77 | 4159.9 |
| 20260509140849 | 19 | 67 | 1.6 | 1.6 | 0.00 | 0.00 | 0.00 | 79 | 4159.8 |
| 20260509140345 | 19 | 279 | 1.6 | 1.6 | 0.00 | 0.00 | 0.00 | 80 | 4159.8 |
| 20260509135844 | 18 | 280 | 0.0 | 1.6 | 0.00 | 0.00 | 0.00 | 81 | 4160.0 |
| 20260509135341 | 18 | 142 | 1.6 | 3.2 | 0.00 | 0.00 | 0.00 | 82 | 4159.9 |
| 20260509134838 | 17 | 155 | 0.0 | 1.6 | 0.00 | 0.00 | 0.00 | 83 | 4159.7 |
| 20260509134335 | 17 | 118 | 0.0 | 0.0 | 0.00 | 0.00 | 0.00 | 86 | 4159.6 |
| 20260509133832 | 16 | 176 | 3.2 | 3.2 | 0.00 | 0.00 | 0.00 | 86 | 4159.8 |
| 20260509133329 | 16 | 170 | 0.0 | 0.0 | 0.00 | 0.00 | 0.00 | 89 | 4159.7 |
| 20260509132828 | 15 | 166 | 1.6 | 1.6 | 0.00 | 0.00 | 0.00 | 91 | 4159.8 |
| 20260509132325 | 15 | 177 | 1.6 | 1.6 | 0.00 | 0.00 | 0.00 | 93 | 4159.5 |
| 20260509131822 | 14 | 187 | 1.6 | 1.6 | 0.00 | 0.00 | 0.00 | 95 | 4159.6 |
| 20260509131319 | 13 | 180 | 3.2 | 3.2 | 0.00 | 0.00 | 0.00 | 97 | 4159.5 |
| 20260509130815 | 13 | 87 | 0.0 | 0.0 | 0.00 | 0.00 | 0.00 | 98 | 4159.7 |
| 20260509130311 | 12 | 87 | 0.0 | 0.0 | 0.00 | 0.00 | 0.00 | 98 | 4159.3 |
| 20260509125808 | 12 | 80 | 0.0 | 0.0 | 0.00 | 0.00 | 0.00 | 99 | 4159.7 |
| 20260509125307 | 12 | 30 | 0.0 | 0.0 | 0.00 | 0.00 | 0.00 | 99 | 4159.5 |
| 20260509124801 | 11 | 14 | 0.0 | 0.0 | 0.00 | 0.00 | 0.00 | 99 | 4159.4 |
| 20260509124257 | 11 | 272 | 0.0 | 0.0 | 0.00 | 0.00 | 0.00 | 99 | 4159.5 |
| 20260509123756 | 11 | 267 | 0.0 | 0.0 | 0.00 | 0.00 | 0.00 | 99 | 4159.5 |
| 20260509123253 | 11 | 267 | 0.0 | 0.0 | 0.00 | 0.00 | 0.00 | 99 | 4159.4 |
| 20260509122748 | 11 | 267 | 0.0 | 0.0 | 0.00 | 0.00 | 0.00 | 99 | 4159.5 |
| 20260509122246 | 10 | 267 | 0.0 | 0.0 | 0.00 | 0.00 | 0.00 | 99 | 4159.5 |
| 20260509121742 | 10 | 267 | 0.0 | 0.0 | 0.00 | 0.00 | 0.00 | 99 | 4159.3 |
| 20260509121239 | 10 | 267 | 0.0 | 0.0 | 0.00 | 0.00 | 0.00 | 99 | 4159.2 |
| 20260509120738 | 10 | 267 | 0.0 | 0.0 | 0.00 | 0.00 | 0.00 | 99 | 4159.2 |
| 20260509120235 | 10 | 267 | 0.0 | 0.0 | 0.00 | 0.00 | 0.00 | 99 | 4159.1 |
| 20260509115733 | 10 | 267 | 0.0 | 0.0 | 0.00 | 0.00 | 0.00 | 99 | 4159.2 |
| 20260509115230 | 10 | 266 | 0.0 | 0.0 | 0.00 | 0.00 | 0.00 | 99 | 4159.3 |
| 20260509114728 | 10 | 267 | 0.0 | 0.0 | 0.00 | 0.00 | 0.00 | 98 | 4159.1 |
| 20260509114226 | 10 | 267 | 0.0 | 0.0 | 0.00 | 0.00 | 0.00 | 98 | 4158.8 |
| 20260509113725 | 10 | 263 | 0.0 | 0.0 | 0.00 | 0.00 | 0.00 | 98 | 4158.9 |
| 20260509113221 | 10 | 260 | 0.0 | 0.0 | 0.00 | 0.00 | 0.00 | 98 | 4158.8 |
| 20260509112719 | 10 | 259 | 0.0 | 0.0 | 0.00 | 0.00 | 0.00 | 98 | 4158.8 |
| 20260509112216 | 10 | 259 | 0.0 | 0.0 | 0.00 | 0.00 | 0.00 | 98 | 4158.7 |
| 20260509111713 | 10 | 260 | 0.0 | 0.0 | 0.00 | 0.00 | 0.00 | 98 | 4158.4 |
| 20260509111209 | 10 | 214 | 0.0 | 0.0 | 0.00 | 0.00 | 0.00 | 98 | 4158.3 |
| 20260509110707 | 10 | 214 | 0.0 | 0.0 | 0.00 | 0.00 | 0.00 | 98 | 4158.4 |
| 20260509110203 | 10 | 214 | 0.0 | 0.0 | 0.00 | 0.00 | 0.00 | 98 | 4158.2 |
| 20260509105701 | 10 | 214 | 0.0 | 0.0 | 0.00 | 0.00 | 0.00 | 98 | 4158.7 |
| 20260509105158 | 10 | 233 | 0.0 | 0.0 | 0.00 | 0.00 | 0.00 | 98 | 4158.4 |
| 20260509104655 | 10 | 234 | 0.0 | 0.0 | 0.00 | 0.00 | 0.00 | 98 | 4158.3 |
| 20260509104152 | 10 | 220 | 0.0 | 0.0 | 0.00 | 0.00 | 0.00 | 97 | 4158.3 |
| 20260509103650 | 10 | 214 | 0.0 | 0.0 | 0.00 | 0.00 | 0.00 | 97 | 4158.3 |
| 20260509103148 | 10 | 213 | 0.0 | 0.0 | 0.00 | 0.00 | 0.00 | 97 | 4158.2 |
| 20260509102646 | 10 | 248 | 0.0 | 0.0 | 0.00 | 0.00 | 0.00 | 97 | 4158.2 |
| 20260509102142 | 11 | 263 | 0.0 | 0.0 | 0.00 | 0.00 | 0.00 | 97 | 4158.4 |
| 20260509101638 | 11 | 205 | 0.0 | 0.0 | 0.00 | 0.00 | 0.00 | 97 | 4158.4 |
| 20260509101135 | 11 | 187 | 0.0 | 0.0 | 0.00 | 0.00 | 0.00 | 97 | 4158.6 |
| 20260509100633 | 11 | 188 | 0.0 | 1.6 | 0.00 | 0.00 | 0.00 | 97 | 4158.3 |
| 20260509100130 | 11 | 191 | 0.0 | 0.0 | 0.00 | 0.00 | 0.00 | 97 | 4158.3 |
| 20260509095626 | 11 | 192 | 0.0 | 0.0 | 0.00 | 0.00 | 0.00 | 96 | 4158.3 |